[[{"header":{"parameterUnit":"m.s-1","parameterCategory":1,"la1":30.2991,"la2":30.254,"lo1":-89.0895,"lo2":-89.0444,"dy":0.0017,"dx":0.0017,"nx":28,"ny":28,"refTime":"2023-08-17T03:00:00:Z","depth":0,"parameterNumber":2,"parameterNumberName":"U-component_of_WINDS"},"data":[0,0,0,0,0,0,0,0,0,0,0,0,0,0,0,0,0,0,0,0,0,0,0,0,0,0,0,0,0,0,0,0,0,0,0,0,0,0,0,0,0,0,0,0,0,0,0,0,0,0,0,0,0,0,0,0,0,0,4.6032,4.6033,0,4.6171,4.6172,4.6174,4.6122,4.6119,4.6115,4.6112,4.6253,4.6259,4.6266,0,0,0,0,0,0,0,0,0,0,0,0,0,4.5716,4.5723,4.6032,4.6034,4.6035,4.6171,4.6172,4.6174,4.6122,4.6119,4.6115,4.6111,4.6251,4.6258,4.6266,0,0,0,0,0,0,0,0,0,0,0,0,0,4.5854,4.5725,4.6031,4.6026,4.6027,4.617,4.6173,4.6175,4.6123,4.6118,4.6114,4.6109,4.6248,4.6258,4.6268,4.6425,0,0,4.6298,4.6303,0,0,0,0,0,0,0,0,4.5846,4.5866,4.6025,4.6026,4.6028,4.6124,4.6113,4.6259,4.6124,4.6086,4.6112,4.6107,4.6214,4.6226,4.6263,4.6431,4.6437,4.6299,4.6305,4.6309,4.6312,0,0,0,0,0,0,0,4.5837,4.586,4.6087,4.6027,4.6029,4.6014,4.6029,4.614,4.6175,4.6089,4.6086,4.6103,4.6213,4.6253,4.6266,4.6439,4.6299,4.6308,4.6314,4.6318,4.6738,4.6743,0,0,0,0,0,0,4.5827,4.5852,4.6082,4.6091,4.5924,4.6024,4.604,4.6098,4.6174,4.6181,4.6107,4.61,4.6238,4.6254,4.627,4.6455,4.6309,4.6319,4.6325,4.6733,4.6739,4.6745,0,0,0,0,0,0,4.5821,4.5848,4.6077,4.5971,4.5998,4.6035,4.61,4.6103,4.6143,4.6187,4.6193,4.6142,4.6235,4.6256,4.6385,4.6459,4.6323,4.6332,4.6727,4.6735,4.6742,4.6829,0,0,0,0,0,0,4.5812,4.5846,4.5908,4.5972,4.6004,4.6191,4.6105,4.6109,4.616,4.6153,4.6221,4.6227,4.6233,4.6371,4.6395,4.6471,4.634,4.672,4.673,4.6739,4.6819,4.6838,4.6855,0,0,0,0,0,4.5801,4.5927,4.5911,4.5939,4.6082,4.6196,4.6214,4.6218,4.6167,4.6227,4.6255,4.6225,4.6448,4.6385,4.6412,4.6491,4.6715,4.6727,4.6739,4.6811,4.6834,4.6854,0,0,0,0,0,0,4.5871,4.5936,4.5919,4.607,4.6128,4.6187,4.6264,4.6244,4.6317,4.6307,4.6308,4.6324,4.6456,4.6487,4.6415,4.6644,4.6574,4.6591,4.6619,4.6642,4.6659,4.6648,4.6349,0,0,0,0,0,4.5904,4.5992,4.6044,4.6172,4.6202,4.6228,4.6278,4.6276,4.6336,4.636,4.6397,4.6455,4.6537,4.6592,4.6671,4.6824,4.6835,4.6892,4.6909,4.6924,4.6938,4.7016,4.7041,4.6783,4.6782,4.6782,0,0,4.5973,4.6019,4.6075,4.6187,4.6232,4.632,4.6249,4.6347,4.6412,4.6374,4.6498,4.6527,4.6592,4.6732,4.6796,4.6762,4.7012,4.6938,4.6949,4.6956,4.7031,4.7055,4.7077,4.679,4.6789,4.6788,0,0,4.6144,4.619,4.6299,4.6345,4.6413,4.6429,4.6455,4.6517,4.6534,4.6659,4.663,4.6707,4.6851,4.6896,4.6939,4.7123,4.7096,4.7149,4.724,4.7317,4.7337,4.7355,4.7416,4.7439,4.7163,4.7163,4.7164,0,4.6221,4.6355,4.6358,4.6458,4.6506,4.6475,4.6585,4.6629,4.6719,4.6752,4.6712,4.6888,4.693,4.7079,4.7123,4.716,4.7187,4.714,4.7334,4.7352,4.7369,4.7427,4.7451,4.7169,4.7168,4.7168,4.7167,0,4.6444,4.6537,4.6618,4.6704,4.6762,4.6866,4.6883,4.6941,4.6933,4.6952,4.7077,4.7125,4.7211,4.7247,4.7242,4.7394,4.737,4.7333,4.7261,4.7399,4.7454,4.7477,4.7177,4.7175,4.7173,4.7172,0,0,4.6663,4.6748,4.6777,4.6814,4.6886,4.6957,4.7058,4.7142,4.7189,4.7252,4.7334,4.7455,4.7419,4.7467,4.7466,4.7534,4.7671,4.7487,4.7489,4.7516,4.7837,4.7862,4.7888,4.7655,4.7659,4.7663,4.783,0,4.6836,4.7014,4.7019,4.7181,4.7264,4.7235,4.7322,4.7374,4.7394,4.7467,4.7489,4.7572,4.7522,4.7549,4.7615,4.764,4.7735,4.7629,4.7728,4.7732,4.771,4.7918,4.7946,4.8101,4.7852,4.7856,4.7858,0,4.7063,4.7131,4.7301,4.7356,4.7391,4.747,4.7545,4.7616,4.7673,4.7682,4.7734,4.7722,4.7822,4.7749,4.7884,4.7812,4.7853,4.7871,4.7877,4.7884,4.7801,4.7926,4.8151,4.8173,4.7893,4.789,4.7888,0,4.72,4.7335,4.7453,4.7486,4.7555,4.761,4.7641,4.7693,4.7742,4.7807,4.7838,4.7914,4.7955,4.8014,4.8021,4.7968,4.8156,4.8085,4.8164,4.8164,4.8203,4.82,4.8433,4.8235,4.8235,4.8235,4.8234,0,4.7391,4.7496,4.7515,4.7588,4.7702,4.7705,4.7818,4.7844,4.789,4.7965,4.7945,4.8015,4.8023,4.8095,4.8102,4.821,4.823,4.8238,4.8238,4.8238,4.8237,4.8263,4.8251,4.8241,4.8239,4.8238,4.8237,0,4.7564,4.7582,4.7708,4.7761,4.7777,4.7859,4.7904,4.7971,4.7988,4.8083,4.8105,4.8132,4.8216,4.8229,4.8328,4.8332,4.8461,4.8452,4.8441,4.8439,4.8516,4.8507,4.8772,4.8805,4.8589,4.8591,4.8593,0,4.7683,4.7762,4.7824,4.7872,4.7906,4.7985,4.8034,4.8039,4.809,4.8159,4.8217,4.8298,4.8363,4.8497,4.8524,4.8598,4.8588,4.8676,4.8599,4.8595,4.8584,4.8578,4.8584,4.8689,4.8692,4.8694,4.8695,0,4.7892,4.7896,4.7968,4.8042,4.81,4.8159,4.8214,4.8255,4.8267,4.8325,4.8409,4.8459,4.8558,4.8637,4.871,4.874,4.8718,4.8719,4.8741,4.874,4.8729,4.8732,4.8478,4.8713,4.8711,4.871,4.8709,4.8708,4.8039,4.8106,4.8158,4.8238,4.828,4.8331,4.8395,4.842,4.8491,4.8571,4.857,4.8661,4.8712,4.8807,4.8842,4.8912,4.8883,4.8916,4.8923,4.893,4.8935,4.8721,4.8925,4.8925,4.8925,4.8924,4.8924,0,4.8243,4.8274,4.8348,4.8424,4.8486,4.8461,4.852,4.8572,4.8653,4.8703,4.8766,4.8861,4.8937,4.8969,4.9043,4.9092,4.9084,4.9111,4.9106,4.9112,4.8959,4.8931,4.9116,4.9116,4.9116,4.9116,4.9116,4.9116,4.8356,4.8467,4.8476,4.8606,4.8637,4.8726,4.8761,4.8807,4.8846,4.8952,4.9015,4.9035,4.9077,4.9153,4.922,4.9227,4.9254,4.9284,4.9287,4.9143,4.9123,4.9105,4.9078,4.9291,4.9291,4.9434,4.9435,4.9436]},{"header":{"parameterUnit":"m.s-1","parameterCategory":1,"la1":30.2991,"la2":30.254,"lo1":-89.0895,"lo2":-89.0444,"dy":0.0017,"dx":0.0017,"nx":28,"ny":28,"refTime":"2023-08-17T03:00:00:Z","depth":0,"parameterNumber":3,"parameterNumberName":"V-component_of_WINDS"},"data":[0,0,0,0,0,0,0,0,0,0,0,0,0,0,0,0,0,0,0,0,0,0,0,0,0,0,0,0,0,0,0,0,0,0,0,0,0,0,0,0,0,0,0,0,0,0,0,0,0,0,0,0,0,0,0,0,0,0,1.6055,1.6056,0,1.6127,1.6128,1.6128,1.6115,1.6113,1.6112,1.6111,1.6185,1.6188,1.6191,0,0,0,0,0,0,0,0,0,0,0,0,0,1.5905,1.5907,1.6055,1.6056,1.6057,1.6127,1.6128,1.6129,1.6115,1.6113,1.6112,1.611,1.6184,1.6187,1.6191,0,0,0,0,0,0,0,0,0,0,0,0,0,1.5972,1.5908,1.6055,1.6058,1.6059,1.6126,1.6128,1.6129,1.6115,1.6113,1.6111,1.611,1.6182,1.6187,1.6192,1.626,0,0,1.6206,1.6208,0,0,0,0,0,0,0,0,1.5969,1.5978,1.6057,1.6058,1.6059,1.611,1.6102,1.6173,1.6116,1.6094,1.6111,1.6109,1.6161,1.6168,1.6185,1.6263,1.6266,1.6207,1.621,1.6212,1.6213,0,0,0,0,0,0,0,1.5964,1.5975,1.6083,1.6058,1.606,1.6056,1.6063,1.6115,1.6138,1.6096,1.6095,1.6104,1.6162,1.6181,1.6187,1.6268,1.6207,1.6211,1.6214,1.6216,1.6403,1.6405,0,0,0,0,0,0,1.5958,1.5971,1.6081,1.6085,1.6008,1.606,1.6069,1.6096,1.6137,1.6142,1.6105,1.6103,1.6174,1.6182,1.619,1.6271,1.6212,1.6216,1.6219,1.6401,1.6403,1.6405,0,0,0,0,0,0,1.5955,1.5968,1.6078,1.6028,1.6042,1.6065,1.6095,1.6098,1.6117,1.6144,1.6148,1.6121,1.6173,1.6183,1.6242,1.6273,1.6218,1.6222,1.6398,1.6401,1.6404,1.6435,0,0,0,0,0,0,1.5951,1.5967,1.5994,1.6029,1.6044,1.613,1.6097,1.6101,1.6125,1.6123,1.616,1.6164,1.6172,1.6235,1.6247,1.6279,1.6226,1.6395,1.6399,1.6403,1.6431,1.6439,1.6445,0,0,0,0,0,1.5945,1.6,1.5995,1.6008,1.6078,1.6132,1.6141,1.6148,1.6128,1.6155,1.6172,1.6163,1.6268,1.6241,1.6254,1.6288,1.6393,1.6398,1.6403,1.6428,1.6437,1.6445,0,0,0,0,0,0,1.5968,1.6005,1.6,1.6067,1.6096,1.6129,1.6163,1.6158,1.6194,1.619,1.6198,1.6206,1.6266,1.6283,1.6253,1.6355,1.6328,1.6335,1.6342,1.6351,1.6358,1.6353,1.623,0,0,0,0,0,1.5981,1.6022,1.6051,1.6108,1.6123,1.614,1.6164,1.6167,1.6198,1.621,1.6232,1.6261,1.6301,1.6327,1.6365,1.6433,1.644,1.6463,1.647,1.6475,1.6482,1.6518,1.6528,1.6421,1.6421,1.6421,0,0,1.6008,1.6033,1.6059,1.6113,1.6136,1.6177,1.6151,1.6196,1.6227,1.6217,1.6274,1.629,1.6324,1.6388,1.6417,1.6404,1.6513,1.6481,1.6486,1.6489,1.6524,1.6534,1.6543,1.6424,1.6424,1.6423,0,0,1.6079,1.6102,1.6151,1.6174,1.6209,1.622,1.6232,1.6265,1.6276,1.6333,1.6326,1.6362,1.643,1.6454,1.6475,1.6552,1.6545,1.6564,1.6601,1.6636,1.6644,1.6652,1.6678,1.6688,1.6571,1.6571,1.6571,0,1.6108,1.6171,1.6177,1.6223,1.6246,1.6238,1.6288,1.631,1.6355,1.6372,1.6356,1.644,1.6463,1.6531,1.6549,1.6567,1.658,1.6561,1.6643,1.665,1.6657,1.6683,1.6693,1.6573,1.6573,1.6572,1.6572,0,1.6205,1.6248,1.6283,1.6326,1.6354,1.6401,1.6414,1.6441,1.6441,1.6454,1.6511,1.6537,1.6579,1.6596,1.6597,1.6664,1.6654,1.6641,1.6613,1.6669,1.6693,1.6703,1.6576,1.6575,1.6574,1.6574,0,0,1.6293,1.6338,1.6351,1.637,1.6407,1.644,1.6486,1.6527,1.655,1.6581,1.6619,1.6676,1.6663,1.6687,1.669,1.6721,1.6779,1.6703,1.6704,1.6716,1.6853,1.6863,1.6874,1.6774,1.6776,1.6777,1.685,0,1.6367,1.6448,1.6454,1.6528,1.6567,1.6559,1.6599,1.6625,1.6638,1.6672,1.6685,1.6725,1.6706,1.672,1.675,1.6765,1.6806,1.676,1.6809,1.6811,1.6801,1.6887,1.6898,1.6965,1.6859,1.6861,1.6862,0,1.6464,1.6497,1.6574,1.6604,1.662,1.6656,1.6693,1.6727,1.6756,1.6763,1.6788,1.6787,1.6833,1.6803,1.6867,1.6835,1.6855,1.6866,1.6868,1.6873,1.684,1.6894,1.6987,1.6996,1.6877,1.6876,1.6875,0,1.652,1.6584,1.6638,1.6654,1.669,1.6716,1.6732,1.6759,1.6783,1.6815,1.683,1.6867,1.6888,1.6916,1.6925,1.6902,1.6987,1.6959,1.6994,1.6994,1.7012,1.7011,1.711,1.7026,1.7025,1.7025,1.7025,0,1.6601,1.6649,1.6663,1.6696,1.6748,1.6754,1.6806,1.682,1.6844,1.688,1.6875,1.6908,1.6917,1.6952,1.6958,1.7009,1.7018,1.7024,1.7026,1.7025,1.7024,1.7038,1.7034,1.7028,1.7027,1.7027,1.7026,0,1.6673,1.6685,1.6743,1.6772,1.678,1.6817,1.6842,1.6873,1.6884,1.6928,1.6939,1.6956,1.6997,1.7007,1.7056,1.706,1.712,1.7117,1.711,1.711,1.7144,1.714,1.7255,1.727,1.7176,1.7177,1.7178,0,1.6724,1.676,1.6793,1.6816,1.6833,1.687,1.6894,1.6901,1.6925,1.696,1.6987,1.7027,1.7059,1.7123,1.714,1.7176,1.7174,1.7211,1.7179,1.7177,1.7173,1.7171,1.7174,1.7217,1.7218,1.7219,1.722,0,1.6814,1.6817,1.6852,1.6888,1.6916,1.6945,1.6972,1.6992,1.7002,1.703,1.707,1.7095,1.7143,1.7182,1.7219,1.7235,1.7229,1.7229,1.7239,1.7239,1.7233,1.7236,1.7126,1.7227,1.7226,1.7226,1.7225,1.7225,1.6877,1.6908,1.6935,1.6973,1.6994,1.7019,1.705,1.7064,1.7098,1.7138,1.7139,1.7183,1.721,1.7258,1.7276,1.731,1.7299,1.7313,1.7317,1.732,1.7323,1.7228,1.7317,1.7316,1.7316,1.7316,1.7316,0,1.6965,1.6982,1.7017,1.7055,1.7084,1.7075,1.7105,1.713,1.7169,1.7194,1.7225,1.7271,1.7308,1.7327,1.7364,1.7387,1.7385,1.7396,1.7395,1.7398,1.7331,1.7319,1.7397,1.7397,1.7397,1.7397,1.7397,1.7397,1.7015,1.7066,1.7073,1.7134,1.715,1.7193,1.7211,1.7233,1.7253,1.7305,1.7336,1.7347,1.737,1.7407,1.7441,1.7445,1.7459,1.7471,1.7474,1.7411,1.7403,1.7395,1.7383,1.7474,1.7474,1.7538,1.7539,1.7539]}]]